Погода в Ключи

Погода в Ключи : погода сейчас, прогноз погоды и архив. Всё, что Вы хотите узнать о погоде в Ключи!

Хотите узнать прогноз погоды в Ключи? Тогда Вам сюда: Погода в Ключи

Поиск расширенной информации на нашем сайте:

Другие новости

Новости СМИ2

Главная страница сайта

Новости сайта

02.10.2013

Напоминаем, что на нашем новом сайте вы можете получить высокодетализированные прогнозы погоды по пунктам России, СНГ и мира (включающие важные для авиации метеовеличины, такие как направление и скорость ветра, видимость, явления погоды, количество и форма облачности, нижняя и верхняя граница облачности), а также ознакомиться с разнообразными материалами по авиационной метеорологии и подборкой полезных ссылок на эту тему.

Сайт Метеоцентр.Азия посвящён разработке технологий оптимизации авиаметеорологического обслуживания, включая проектирование и перспективное создание нескольких автоматизированных авиаметеорологических систем:
- система выпуска высокодетальных прогностических карт явлений погоды для нижнего воздушного пространства по России и ближнему зарубежью;
- система верификации прогнозов TAF (выпускаемых синоптиками официальных АМСГ РФ и ближнего зарубежья) и AUTOTAF (выпускаемых сайтом Метеоцентр.Азия) - выявление ошибок, онлайн-сопоставление с фактической погодой METAR, автоматическое внесение коррективов в прогнозы при резком отклонении фактической погоды от прогноза, подсчёт оправдываемости прогнозов по элементам и в целом;
- система обработки, анализа и отображения авиаметеорологической информации для применения провайдерами метеорологической информации.

Рекомендуем: доставка бытовок

Погода в Ключи - сегодня

Время (UTC), дата Ветер
(°,м/с) 
Видим.   Явления Облачность Т
(°С)
Тd
(°С)
f(%) Тe
(°С)
Pmin
(гПа)
dP
(гПа)
Po
(мм)
O2
(г/м3)
Тmin Tmax R s Состояние
почвы
18 24.05.17 120 (ЮВ) 20000 м    9/5 1000 м средняя, верхняя 
[Sc|Ac trans|Ci fib]
+1.5 -0.9 84 +1  1016.5  0.1  760  305           
00 25.05.17 290 (З) 20000 м    8/3 1000 м 
[Cu med, cong]
+12.6 -3.8 32 +13  1014.9  -1.3  759  293           
06 25.05.17 270 (З) 4{10}  20000 м  пыльный позёмок  9/6 1000 м средняя, верхняя 
[Sc|Ac trans|Ci fib]
+13.4 -6.1 25 +13  1014.4  0.1  758  292           
12 25.05.17 220 (ЮЗ) 20000 м    4/0 средняя 
[Ac trans]
+4.6 -3.2 57 +5  1016.1  1.2  759  301           
15 25.05.17 250 (З) 20000 м    3/0 средняя 
[Ac trans]
+5.4 -3.6 52 +4  1016.3  0.2  760  301           
18 25.05.17 240 (ЮЗ) 20000 м    3/0 верхняя 
[Ci fib]
+5.7 -2.9 54 +5  1015.8  -0.5  759  300           
21 25.05.17 300 (СЗ) 20000 м  пыльный позёмок  3/0 верхняя 
[Ci fib]
+10.2 -3.7 37 +10  1015.3  -0.4  759  295  +3.4        сухая 
00 26.05.17 280 (З) 20000 м    6/0 средняя, верхняя 
[Ac trans|Ci fib]
+14.7 -5.5 24 +15  1013.5  -1.7  758  290           
03 26.05.17 180 (Ю) 20000 м  пыльный позёмок  3/0 верхняя 
[Ci fib]
+16.4 -7.3 19 +16  1011.4  -2.1  756  288           
06 26.05.17 170 (Ю) 20000 м    3/0 верхняя 
[Ci fib]
+16.8 -10.2 15 +17  1009.5  -1.9  755  287           
12 26.05.17 100 (В) 20000 м    6/0 средняя 
[Ac trans]
+7.9 -1.6 51 +7  1008.5  -0.1  754  295           
15 26.05.17 130 (ЮВ) 20000 м    6/0 средняя 
[Ac trans]
+5.3 -1.1 63 +4  1007.3  -1.3  753  298           
18 26.05.17 110 (В) 20000 м    9/3 1000 м средняя, верхняя 
[Sc|Ac trans|Ci fib]
+3.4 +0.4 81 +2  1006.2  -1  752  299           
00 27.05.17 080 (В) 20000 м    9/0 средняя 
[As op]
+8.1 +0.4 58 +7  1003.2  -1.5  750  293           
03 27.05.17 080 (В) 20000 м    10/3 1000 м средняя, верхняя 
[Sc|Ac trans|Ci fib]
+10.2 +0.7 52 +10  1001.1  -2.1  748  290           
06 27.05.17 080 (В) 20000 м    9/6 1000 м средняя, верхняя 
[Sc|Ac trans|Ci fib]
+11.8 +0.9 47 +13  1000.8  -0.3  748  289           
09 27.05.17 310 (СЗ) 4{10}  20000 м  пыльный позёмок{ливн. осадки}  8/5 1000 м средняя 
[Sc diur, vesp|Ac trans]
+11.1 -0.4 45 +10  1000.8  0.1  748  290    +12.2  0.0     
21 27.05.17 320 (СЗ) 5{12}  20000 м  пыльный позёмок  3/1 1000 м верхняя 
[Cu hum|Ci fib]
+9.5 -0.4 50 +8  1005.8  0.6  752  293  +6.2        сухая 
06 28.05.17 010 (С) 20000 м    9/5 1000 м средняя, верхняя 
[Sc diur, vesp|Ac trans|Ci fib]
+15.3 -2.4 29 +16  1004.9  0.1  751  287           
12 28.05.17 100 (В) 20000 м    9/4 1000 м средняя 
[Sc|Ac trans]
+7.5 +0 59 +8  1006.4  0.6  752  295           
15 28.05.17 130 (ЮВ) 20000 м    9/3 1000 м средняя 
[Sc|Ac trans]
+3.4 -0.7 74 +3  1006.5  752  299           
18 28.05.17 130 (ЮВ) 20000 м    9/1 1000 м средняя, верхняя 
[Sc|Ac trans|Ci fib]
+3.4 -0.1 78 +3  1007  0.5  753  299           
00 29.05.17 070 (В) 20000 м    9/3 1000 м средняя, верхняя 
[Cu hum|Ac trans|Ci fib]
+14.8 -1 34 +15  1006.6  -0.5  752  288           
03 29.05.17 080 (В) 20000 м  пыльный позёмок  9/3 1000 м средняя, верхняя 
[Cu hum|Ac trans|Ci fib]
+15.1 -1.3 32 +15  1006.4  -0.2  752  287           
06 29.05.17 080 (В) 20000 м  пыльный позёмок  9/3 1000 м средняя, верхняя 
[Sc|Ac trans|Ci fib]
+13.5 -0.4 38 +14  1007.2  0.7  753  289           
Время (UTC), дата Ветер
(°,м/с) 
Видим.   Явления Облачность Т
(°С)
Тd
(°С)
f(%) Тe
(°С)
Pmin
(гПа)
dP
(гПа)
Po
(мм)
O2
(г/м3)
Тmin Tmax R s Состояние
почвы

Для получения пояснительной информации подведите курсор к названию столбца.

ПОГОДА в Ключи - архив

Всё, что Вы хотите узнать о погоде в Ключи - удобно и подробно!

Выберите нужную дату (начиная с 1 января 2015* года) и нажмите кнопку "Найти".
Будут отображены архивные сводки погоды по пункту Ключи, начиная с указанной даты.


Отображать данные в формате CSV (для использования в таблицах Excel)


Внимание! Наш архив погоды предназначен исключительно для личного некоммерческого использования в познавательных целях. Если Вам необходимы официальные справки о состоянии погоды (для производственных, юридических, коммерческих и т.п. целей), обращайтесь в органы Росгидромета.

*Примечание: данная дата относится к архиву по метеостанциям СССР (Россия, СНГ, Балтия).
Архив по метеостанциям Зарубежной Европы и Азии (кроме Китая) хранится 10 дней, по другим регионам земного шара (Китай, Африка, Америка, Австралия, Океания) - 1 день.

Ключи - район местоположения метеостанции


Название, широта, долгота, высота метеостанции:
Ключи 56.3°ш. 160.8°д. 29 м над ур. моря [Российская Федерация]

Дополнительная информация

В oтличие oт бoльшинства пoгoдных сайтoв мы публикуем пoдрoбную метеoинфoрмацию в детальнoм прoфессиoнальнoм фoрмате.

Характеристики температуры и влажнoсти вoздуха измеряются на высoте 2 м в тени вдали oт зданий и деревьев.
Скoрoсть ветра измеряется на высoте 10 м (на урoвне рoста челoвека скoрoсть ветра ниже в 1.5-2 раза). Если метеoстанция нахoдится в гoрoде или в лесу, тo скoрoсть ветра занижена на 2-4 м/с пo сравнению с oткрытым местoм. Скoрoсть ветра над акватoриями крупных рек и oзёр, а также на вершинах хoлмoв на 2-5 м/с выше, чем в oбычных услoвиях.
Атмoсфернoе давление в разных тoчках местнoсти мoжет значительнo oтличаться oт давления на метеoстанции, в зависимoсти oт услoвий рельефа (при пoдъёме на 10 м давление пoнижается примернo на 1 мм рт.ст.).